{"data":{"norad_id":40013,"intl_designator":"2014-033D","name":"DEIMOS-2","alt_names":[],"object_type":"PAYLOAD","status":"ACTIVE","operator":null,"country":"SPN","launch_date":"2014-06-19","launch_site_code":"DLS","launch_vehicle":null,"mission":null,"orbit_class":"UNKNOWN","rcs_meters":1.7984,"size_class":null,"mass_kg":null,"dimensions":null,"purposes":["earth_obs"],"wikipedia_slug":null,"has_3d_model":false,"image_url":null,"decayed_at":null,"tle_current":{"epoch":"2026-05-25T03:19:38.915040Z","epoch_age_seconds":63900,"freshness":"FRESH","line1":"1 40013U 14033D   26145.13864485  .00001888  00000+0  18383-3 0  9996","line2":"2 40013  97.5856  20.4341 0002418  72.7087 287.4398 14.93651282634285","mean_motion":14.93651282,"eccentricity":0.0002418,"inclination_deg":97.5856,"raan_deg":20.4341,"arg_perigee_deg":72.7087,"mean_anomaly_deg":287.4398,"bstar":0.00018383,"rev_number":63428,"period_min":96.408044993731,"perigee_km":584.87813078908,"apogee_km":588.24625931981,"semimajor_km":6964.6991950544,"source":"CELESTRAK","updated_at":"2026-05-25T13:38:12.784928Z"}}}